STARLINK-5737, 55570

Orbit data source: Space-Track

STARLINK-5737, 55570 is a payload satellite owned by SpaceX/Seattle (US) in LEO that was launched on Sun, 12 Feb 2023 UTC via an FALCON 9 launch vehicle from the Air Force Eastern Test Range (AFETR). Payload-class satellites include a variety of spacecraft equipped with specific instruments for various scientific and technological missions. These include communications satellites like Starlink; space stations such as the ISS; scientific satellites like the Hubble; Earth observation satellites from companies like Planet Labs, Umbra, and HawkEye 360; GPS; miniature CubeSats for education and research; and military/defense satellites.

Loading next visibility...
Identifier
55570, 2023-020B
Orbit
LEO
Country
Flag of USUS
Related business
Manufacturer
SpaceX/Seattle
Mission
Operational Commercial Communications
Bus & Motor
STARLINK, Unknown motor
Mass
305 kg wet, ~290 kg dry
Launch date (UTC)
2023-02-12 (3 years ago)
Launch vehicle
FALCON 9
Launch site
Air Force Eastern Test Range (AFETR)
Object type
Payload
Rocket body
Debris
Shape & HBR
Box + 1 Pan, 10.1 m
Radar Cross Section
13.562 m², Large (>1 m²)

Expand to show TLE details & history
Last TLE update: 7 hours ago

TLE from 7 hours ago
0 STARLINK-5737
1 55570U 23020B   26062.66668981  .00045148  00000-0  30272-2 0  9993
2 55570  43.0013  37.7265 0000362 267.5641 288.2047 15.06168471  5798
Epoch: 2026-03-03T16:00Z
TLE epoch observation values (Epoch: 2026-03-03T16:00:01.999Z)
Latitude
-10.79467°
Longitude
-171.9924°
Altitude
549.647 km
Speed
7.588 km/s
True Right ascension
15h 17m 50s
True Declination
-10° 43' 47"
Sunlit
Object was in partial shadow at epoch
Visualization orbit readout
Latitude
Unknown
Longitude
Unknown
Altitude
Unknown
Speed
Unknown
Apparent Right ascension
Unknown
Apparent Declination
Unknown
Sunlit
N/A
Visualization observer readout
Local Sidereal Time
03:00:17
Azimuth
Unknown
Elevation
Unknown
Doppler factor
Unknown
Orbital elements
Apogee altitude
550.099 km
Perigee altitude
549.597 km
Semi-major axis
6,927.985 km
Eccentricity
0.00004
Inclination
43.0013°
RAAN
37.7265°
Arg. of periapsis
267.5641°
True anomaly
288.20076°
Mean anomaly
288.2047°
Eccentric anomaly
288.20273°
Mean motion
3.76385 °/min
Orbital period
95.65 mins
BSTAR
0.0030272
Loading maneuver chart data...
Computing Atmospheric mass density...
Loading historical data...
Loading historical data...
Loading historical data...
Loading historical data...
Loading historical data...
Loading historical data...
Loading historical data...

Documentation

Showing up to 5 results
|